Regional Weather Roundup
Issued by NWS

Home | Current Version | Previous Version | Text Only | Print | Product List | Glossary Off
Versions: 1 2 3 4 5 6 7 8 9 10 11 12 13 14 15 16 17 18 19 20 21 22 23 24 25 26 27 28

000
ASUS45 KCYS 241310
RWRWY

WYOMING REGIONAL WEATHER ROUNDUP
NATIONAL WEATHER SERVICE CHEYENNE WY
700 AM MDT SUN SEP 24 2017

NOTE:  "FAIR" INDICATES FEW OR NO CLOUDS BELOW 12,000 FEET
WITH NO SIGNIFICANT WEATHER AND/OR OBSTRUCTIONS TO VISIBILITY.

WYZ001-241400-
YELLOWSTONE NATIONAL PARK

CITY           SKY/WX    TMP DP  RH WIND       PRES   REMARKS
LK YELLOWSTONE NOT AVBL
W YELLOWSTONE  NOT AVBL

$$
WYZ002>013-054>058-071-098>099-241400-
NORTHERN WYOMING

CITY           SKY/WX    TMP DP  RH WIND       PRES   REMARKS
JACKSON        FAIR      33  30  88 N17G23    29.96S WCI  22
CODY           CLOUDY    36  33  89 N8        30.09R WCI  30
GREYBULL       CLOUDY    43  41  93 NW6       30.05R
WORLAND        CLOUDY    41  40  96 W6        30.04S
SHERIDAN       CLOUDY    39  38  96 CALM      30.09S
BUFFALO        FOG       37  34  89 N10       30.07S VSB 1/4 WCI  30
GILLETTE       CLOUDY    38  38 100 N12       30.06R WCI  30
HULETT         RAIN      41  39  93 N7        30.06S
NEWCASTLE      RAIN      41  39  93 NW12      30.02R

$$
WYZ014>020-022>026-101>103-241400-
CENTRAL WYOMING

CITY           SKY/WX    TMP DP  RH WIND       PRES   REMARKS
BIG PINEY      CLOUDY    36  35  96 CALM      29.94R
PINEDALE       CLOUDY    32  32 100 NW6       29.94R WCI  26
DUBOIS         CLOUDY    32  30  93 SE8       30.02S WCI  25
LANDER         CLOUDY    36  34  92 SW8       30.04R WCI  30
RIVERTON       CLOUDY    38  36  92 CALM      30.05R
CASPER         CLOUDY    36  35  96 NE12      30.05R WCI  28
DOUGLAS        CLOUDY    39  36  89 N10       30.05S WCI  32

$$
WYZ021-027>030-104>119-241400-
SOUTHERN WYOMING

CITY           SKY/WX    TMP DP  RH WIND       PRES   REMARKS
EVANSTON       CLOUDY    34  33  96 NE9       29.90S WCI  27
FORT BRIDGER   FOG       33  33 100 NE7       29.94S VSB 1/4 WCI  27
ROCK SPRINGS   CLOUDY    33  31  92 NE30G39   29.90F WCI  19
DIXON          CLOUDY    35  32  91 SE6       29.90S WCI  30
RAWLINS        CLOUDY    38  34  85 NE14      29.95S WCI  30
SARATOGA       FOG       36  36 100 SE3       29.95S VSB 1
LARAMIE        CLOUDY    39  36  89 SE7       29.97R WCI  34
CHEYENNE       LGT RAIN  41  40  96 NE9       29.99S FOG
TORRINGTON     LGT RAIN  44  43  96 NE3       30.01R
PINE BLUFFS    CLOUDY    41  41 100 MISG      30.00S FOG

$$




USA.gov is the U.S. government's official web portal to all federal, state and local government web resources and services.